THOR ABLESTAR DEB, 230

Orbit data source: Space-Track

THOR ABLESTAR DEB, 230 is space debris in LEO originally from a launch on Thu, 29 Jun 1961 UTC launched from the Air Force Eastern Test Range (AFETR). Debris objects in space refer to the collection of defunct objects orbiting the Earth. Examples of debris include non-operational satellites, rocket bodies, and fragments generated from explosions, collisions, or faulty payload assembly.

Loading next visibility...
Identifier
230, 1961-015BN
Orbit
LEO
Country
Flag of USUS
Related business
Manufacturer
Unknown
Mission
Spacecraft
Bus & Motor
Unknown
Mass
Unknown
Launch date (UTC)
1961-06-29 (65 years ago)
Launch vehicle
Unknown
Launch site
Air Force Eastern Test Range (AFETR)
Object type
Payload
Rocket body
Debris
Shape & HBR
Unknown shape, 0.2 m
Radar Cross Section
Small (<0.1 m²)

Expand to show TLE details & history
Last TLE update: 18 hours ago

TLE from 18 hours ago
0 THOR ABLESTAR DEB
1   230U 61015BN  26126.37144294  .00000026  00000-0  71390-4 0  9991
2   230  66.8814 151.8470 0096126 207.0030 152.6034 13.96798296299913
Epoch: 2026-05-06T08:54Z
TLE epoch observation values (Epoch: 2026-05-06T08:54:52.670Z)
Latitude
-0.00002°
Longitude
153.89464°
Altitude
969.296 km
Speed
7.336 km/s
True Right ascension
10h 07m 23s
True Declination
0° 00' 00"
Sunlit
Object was in daylight at epoch
Visualization orbit readout
Latitude
Unknown
Longitude
Unknown
Altitude
Unknown
Speed
Unknown
Apparent Right ascension
Unknown
Apparent Declination
Unknown
Sunlit
N/A
Visualization observer readout
Local Sidereal Time
11:16:14
Azimuth
Unknown
Elevation
Unknown
Doppler factor
Unknown
Orbital elements
Apogee altitude
973.276 km
Perigee altitude
833.289 km
Semi-major axis
7,281.42 km
Eccentricity
0.00961
Inclination
66.8814°
RAAN
151.847°
Arg. of periapsis
207.003°
True anomaly
153.1049°
Mean anomaly
152.6034°
Eccentric anomaly
152.85468°
Mean motion
3.49316 °/min
Orbital period
103.06 mins
BSTAR
0.00007139
Loading maneuver chart data...
Computing Atmospheric mass density...
Loading historical data...
Loading historical data...
Loading historical data...
Loading historical data...
Loading historical data...
Loading historical data...
Loading historical data...

Documentation

Showing up to 5 results
|